Back to catalog

NAVSTAR 56

USA 180

AliveNavigationHEO
NORAD 28474·PAYLOAD·🇺🇸 United States

Launched Nov 6, 2004 from Cape Canaveral Space Force Station

Loading…

Next Passes (next 24 hours)

TLE

FreshSource: CelesTrak SupGP

Epoch: Sep 16, 2026, 16:44 UTC

1 28474C 04045A   26259.69756944  .00000000  00000+0  00000+0 0  2599
2 28474  55.0767 321.2058 0172217 318.6791 152.3354  2.00560176    14

Track NAVSTAR 56 in real time with AllMySat

Download on the App Store